This is the latest recevied weather packets stored in our database for station/object KN6DHD. If no packets are shown the sender has not sent any weather packets the latest 10 day(s).
| Time | Temp. | Humidity | Pressure | Rain* | Wind** | Luminosity | Snow |
|---|---|---|---|---|---|---|---|
| 1777127335 | 10.56° C | 92% | 1011.8 hPa | 0 mm | - | 51 W/m² | - |
| 1777127031 | 10.56° C | 92% | 1011.5 hPa | 0 mm | - | 43 W/m² | - |
| 1777126727 | 10° C | 92% | 1011.5 hPa | 0 mm | - | 38 W/m² | - |
| 1777126423 | 10° C | 92% | 1011.4 hPa | 0 mm | - | 37 W/m² | - |
| 1777126118 | 10° C | 92% | 1011.5 hPa | 0 mm | - | 32 W/m² | - |
| 1777125815 | 10° C | 93% | 1011.5 hPa | 0 mm | - | 23 W/m² | - |
| 1777125511 | 10° C | 94% | 1011.3 hPa | 0 mm | - | 19 W/m² | - |
| 1777125206 | 9.44° C | 94% | 1011.3 hPa | 0 mm | - | 17 W/m² | - |
| 1777124902 | 9.44° C | 95% | 1011.5 hPa | 0 mm | - | 17 W/m² | - |
| 1777124599 | 9.44° C | 95% | 1011.5 hPa | 0 mm | - | 12 W/m² | - |
| 1777124294 | 8.89° C | 95% | 1011.4 hPa | 0 mm | - | 8 W/m² | - |
| 1777123992 | 8.89° C | 95% | 1011.4 hPa | 0 mm | - | 5 W/m² | - |
| 1777123688 | 8.89° C | 95% | 1011.3 hPa | 0 mm | - | 3 W/m² | - |
| 1777123384 | 8.89° C | 95% | 1011.2 hPa | 0 mm | - | 1 W/m² | - |
| 1777123080 | 8.89° C | 95% | 1011.3 hPa | 0 mm | - | 0 W/m² | - |
| 1777122777 | 8.89° C | 95% | 1011.1 hPa | 0 mm | - | 0 W/m² | - |
| 1777122472 | 8.89° C | 94% | 1011.2 hPa | 0 mm | - | 0 W/m² | - |
| 1777122169 | 9.44° C | 94% | 1011.2 hPa | 0 mm | - | 0 W/m² | - |
| 1777121865 | 9.44° C | 94% | 1011.3 hPa | 0 mm | - | 0 W/m² | - |
| 1777121562 | 9.44° C | 94% | 1011.2 hPa | 0 mm | - | 0 W/m² | - |
| 1777121258 | 9.44° C | 94% | 1010.9 hPa | 0 mm | - | 0 W/m² | - |
| 1777120955 | 9.44° C | 94% | 1011.1 hPa | 0 mm | - | 0 W/m² | - |
| 1777120651 | 9.44° C | 95% | 1011.4 hPa | 0 mm | - | 0 W/m² | - |
| 1777120346 | 9.44° C | 94% | 1011.2 hPa | 0 mm | - | 0 W/m² | - |
| 1777120042 | 9.44° C | 94% | 1011.2 hPa | 0 mm | - | 0 W/m² | - |
* Rain latest hour (hover to see other rain measurements)
** Current wind speed in m/s (hover to see current wind gust speed)